Groningen, Netherlands

1:36 PM CET on January 18, 2017 (GMT +0100)
Eelde

Weather History for EHGG - April, 2014

Change the Weather History Date:

Wednesday, April 23, 2014

  Actual Average Record
Temperature  
Mean Temperature 54 °F -  
Max Temperature 67 °F 60 °F 75 °F (2011)
Min Temperature 40 °F 41 °F 28 °F (1997)
Degree Days  
Heating Degree Days 12    
Growing Degree Days 4 (Base 50)    
Moisture  
Dew Point 48 °F    
Average Humidity 81    
Maximum Humidity 100    
Minimum Humidity 45    
Precipitation  
Precipitation 0.43 in 0.07 in - ()
Sea Level Pressure  
Sea Level Pressure 30.09 in    
Wind  
Wind Speed 4 mph ()    
Max Wind Speed 12 mph    
Max Gust Speed -    
Visibility 3.9 miles    
Events Fog , Rain , Thunderstorm    
Averages and records for this station are not official NWS values.
T = Trace of Precipitation, MM = Missing Value Source: Averaged Metar Reports

Daily Weather History Graph

Daily Weather History Graph

Search for Another Location

Airport or City:

Trip Planner

Search our weather history database for the weather conditions in past years. The results will help you decide how hot, cold, wet, or windy it might be!

Date:

Astronomy

Apr. 23, 2014 Rise Set
Actual Time 6:17 AM CEST 8:47 PM CEST
Civil Twilight 5:38 AM CEST 9:26 PM CEST
Nautical Twilight 4:49 AM CEST 10:15 PM CEST
Astronomical Twilight 3:50 AM CEST 11:15 PM CEST
Moon 3:30 AM CEST (4/23) 1:48 PM CEST (4/23)
Length of Visible Light 15h 47m
Length of Day
14h 30m
Last Quarter, 38% of the Moon is Illuminated
Apr 23
Last Quarter
Apr 29
New
May 7
First Quarter
May 14
Full
May 21
Last Quarter

Hourly Weather History & Observations

Time (CEST) Temp. Windchill Dew Point Humidity Pressure Visibility Wind Dir Wind Speed Gust Speed Precip Events Conditions
12:00 AM 46 °F - 46 °F 97% 30.02 in 0 mi NE 2.2 mph - - Fog Fog
12:25 AM 46.4 °F - 46.4 °F 100% 30.01 in 0.6 mi ENE 1.2 mph - N/A   Mist
12:55 AM 46.4 °F - 44.6 °F 93% 30.01 in 0.2 mi East 1.2 mph - N/A Fog Fog
1:00 AM 46 °F - 46 °F 99% 30.03 in 0 mi NE 2.2 mph - - Fog Fog
1:25 AM 46.4 °F - 44.6 °F 93% 30.01 in 0.6 mi ENE 2.3 mph - N/A   Mist
1:55 AM 42.8 °F - 42.8 °F 100% 30.01 in 1.4 mi Variable 1.2 mph - N/A   Mist
2:00 AM 45 °F - 44 °F 96% 30.04 in 1 mi 2.2 mph - - Fog Fog
2:25 AM 42.8 °F - 42.8 °F 100% 30.04 in 1.2 mi South 2.3 mph - N/A   Mist
2:55 AM 42.8 °F - 41.0 °F 93% 30.04 in 4.3 mi SSW 1.2 mph - N/A   Mostly Cloudy
3:00 AM 44 °F - 43 °F 96% 30.04 in 1 mi SSW 2.2 mph - - Fog Fog
3:25 AM 41.0 °F - 41.0 °F 100% 30.04 in 0.1 mi South 1.2 mph - N/A Fog Fog
3:55 AM 41.0 °F - 41.0 °F 100% 30.04 in - ENE 1.2 mph - N/A Fog Fog
4:00 AM 42 °F - 42 °F 99% 30.05 in 0 mi ENE 2.2 mph - - Fog Fog
4:25 AM 42.8 °F - 42.8 °F 100% 30.04 in 1.6 mi ENE 2.3 mph - N/A   Mist
4:55 AM 42.8 °F - 41.0 °F 93% 30.04 in 0.7 mi East 1.2 mph - N/A   Mist
5:00 AM 41 °F - 41 °F 100% 30.06 in 0 mi East 2.2 mph - - Fog Fog
5:25 AM 42.8 °F - 42.8 °F 100% 30.04 in 1.4 mi ENE 2.3 mph - N/A   Mist
5:55 AM 41.0 °F - 41.0 °F 100% 30.06 in 0.2 mi Variable 1.2 mph - N/A Fog Fog
6:00 AM 41 °F - 41 °F 98% 30.08 in 0 mi Calm Calm - - Fog Fog
6:25 AM 41.0 °F - 41.0 °F 100% 30.06 in 1.3 mi NNE 2.3 mph - N/A   Mist
6:55 AM 42.8 °F 41.1 °F 42.8 °F 100% 30.06 in 1.1 mi ENE 3.5 mph - N/A   Mist
7:00 AM 45 °F - 44 °F 96% 30.09 in 1 mi ENE 2.2 mph - - Fog Fog
7:25 AM 46.4 °F - 46.4 °F 100% 30.06 in 1.2 mi Variable 2.3 mph - N/A   Mist
7:55 AM 48.2 °F - 48.2 °F 100% 30.09 in 1.0 mi Variable 2.3 mph - N/A   Mist
8:00 AM 49 °F - 48 °F 97% 30.10 in 1 mi SE 2.2 mph - -   Mist
8:25 AM 50.0 °F - 48.2 °F 94% 30.09 in 1.1 mi Variable 2.3 mph - N/A   Mist
8:55 AM 51.8 °F - 50.0 °F 94% 30.09 in 1.3 mi Variable 2.3 mph - N/A   Mist
9:00 AM 51 °F - 50 °F 94% 30.11 in 1 mi SSE 2.2 mph - -   Mist
9:25 AM 51.8 °F - 50.0 °F 94% 30.09 in 1.2 mi Variable 2.3 mph - N/A   Mist
9:55 AM 53.6 °F - 50.0 °F 88% 30.09 in 1.6 mi WSW 3.5 mph - N/A   Partly Cloudy
10:00 AM 54 °F - 51 °F 84% 30.13 in 2 mi SSW 2.2 mph - -   Mist
10:25 AM 55.4 °F - 50.0 °F 82% 30.12 in 3.1 mi Variable 1.2 mph - N/A   Mist
10:55 AM 57.2 °F - 50.0 °F 77% 30.12 in 3.7 mi Variable 2.3 mph - N/A   Unknown
11:00 AM 58 °F - 49 °F 63% 30.14 in 4 mi ESE 2.2 mph - -   Light Haze
11:25 AM 59.0 °F - 50.0 °F 72% 30.12 in 4.3 mi East 4.6 mph - N/A   Unknown
11:55 AM 59.0 °F - 50.0 °F 72% 30.12 in 5.0 mi SE 3.5 mph - N/A   Unknown
12:00 PM 60 °F - 50 °F 61% 30.14 in 6 mi ESE 4.5 mph - -   Light Haze
12:25 PM 60.8 °F - 50.0 °F 68% 30.12 in 6.2 mi ESE 4.6 mph - N/A   Unknown
12:55 PM 62.6 °F - 48.2 °F 59% 30.12 in 6.2 mi East 6.9 mph - N/A   Unknown
1:00 PM 64 °F - 50 °F 49% 30.13 in 9 mi East 6.7 mph - -   Scattered Clouds
1:25 PM 64.4 °F - 50.0 °F 59% 30.12 in 6.2 mi ENE 8.1 mph - N/A   Unknown
1:55 PM 66.2 °F - 50.0 °F 56% 30.12 in 6.2 mi ENE 8.1 mph - N/A   Unknown
2:00 PM 66 °F - 49 °F 45% 30.13 in 11 mi East 8.9 mph - -   Partly Cloudy
2:25 PM 66.2 °F - 48.2 °F 52% 30.12 in 6.2 mi NE 9.2 mph - N/A   Mostly Cloudy
2:55 PM 66.2 °F - 48.2 °F 52% 30.09 in 6.2 mi NE 9.2 mph - N/A   Mostly Cloudy
3:00 PM 64 °F - 49 °F 49% 30.12 in 9 mi NE 8.9 mph - -   Mostly Cloudy
3:25 PM 66.2 °F - 50.0 °F 56% 30.09 in 6.2 mi NE 6.9 mph - N/A   Partly Cloudy
3:55 PM 64.4 °F - 50.0 °F 59% 30.09 in 6.2 mi NE 8.1 mph - N/A   Unknown
4:00 PM 64 °F - 48 °F 46% 30.12 in 13 mi NE 11.2 mph - -   Scattered Clouds
4:25 PM 64.4 °F - 50.0 °F 59% 30.09 in 6.2 mi NE 8.1 mph - N/A   Unknown
4:55 PM 64.4 °F - 48.2 °F 56% 30.09 in 6.2 mi NE 9.2 mph - N/A   Unknown
5:00 PM 65 °F - 49 °F 45% 30.11 in 13 mi NNE 8.9 mph - -   Mostly Cloudy
5:25 PM 66.2 °F - 48.2 °F 52% 30.09 in 6.2 mi NE 11.5 mph - N/A   Unknown
5:55 PM 62.6 °F - 48.2 °F 59% 30.09 in 6.2 mi NNE 11.5 mph - N/A   Unknown
6:00 PM 63 °F - 47 °F 45% 30.11 in 15 mi NNE 11.2 mph - -   Scattered Clouds
6:25 PM 62.6 °F - 51.8 °F 68% 30.09 in 6.2 mi NNE 10.4 mph - N/A   Unknown
6:55 PM 60.8 °F - 51.8 °F 72% 30.09 in 6.2 mi NNE 10.4 mph - N/A   Unknown
7:00 PM 60 °F - 52 °F 67% 30.11 in 7 mi North 8.9 mph - -   Scattered Clouds
7:25 PM 59.0 °F - 51.8 °F 77% 30.09 in 6.2 mi NNE 8.1 mph - N/A   Unknown
7:55 PM 59.0 °F - 53.6 °F 82% 30.09 in 4.3 mi NE 10.4 mph - N/A Thunderstorm Thunderstorm
8:00 PM 59 °F - 54 °F 77% 30.11 in 4 mi NE 8.9 mph - - Thunderstorm Light Thunderstorm
8:25 PM 59.0 °F - 53.6 °F 82% 30.12 in 4.3 mi Variable 6.9 mph - N/A Thunderstorm Thunderstorm
8:55 PM 59.0 °F - 53.6 °F 82% 30.12 in 5.0 mi West 4.6 mph - N/A Thunderstorm Thunderstorm
9:00 PM 58 °F - 51 °F 70% 30.16 in 3 mi SW 8.9 mph - -   Unknown
9:25 PM 53.6 °F - 50.0 °F 88% 30.15 in 1.8 mi Variable 3.5 mph - N/A Rain Heavy Rain Showers
9:55 PM 53.6 °F - 51.8 °F 94% 30.12 in 6.2 mi NE 5.8 mph - N/A Rain Light Rain
10:00 PM 54 °F - 52 °F 91% 30.14 in 4 mi NE 11.2 mph - - Rain Rain Showers
10:25 PM 53.6 °F - 50.0 °F 88% 30.15 in 6.2 mi Variable 5.8 mph - N/A Rain Light Rain
10:55 PM 53.6 °F - 50.0 °F 88% 30.12 in 6.2 mi North 4.6 mph - N/A   Mostly Cloudy
11:00 PM 52 °F - 50 °F 90% 30.15 in 4 mi NNE 4.5 mph - - Rain Rain
11:25 PM 51.8 °F - 50.0 °F 94% 30.12 in - NE 5.8 mph - N/A   Partly Cloudy
11:55 PM 51.8 °F - 51.8 °F 100% 30.12 in 1.6 mi ENE 8.1 mph - N/A   Mist